GAP2040 RPVE-RPLL

Flight info

Callsign GAP2040
Flight time 0h 50m
Altitude 22000
Route MINOR8A MINOR B473 LAIYA LAIYA3R
Aircraft A320/M-SDE3FGHIRWY/LB1

Departure

Time 2026-05-04 13:18
Airport Godofredo P. Ramos Airport (RPVE)

Arrival

Time 2026-05-04 14:09
Airport Ninoy Aquino International Airport (RPLL)
Time Latitude Longitude Altitude Speed Heading
2026-05-04 12:57 11.92631 121.96332 30 ft 0 kts 153°
2026-05-04 13:08 11.92637 121.96329 30 ft 2 kts 153°
2026-05-04 13:08 11.92651 121.96322 30 ft 2 kts 153°
2026-05-04 13:09 11.92664 121.96315 30 ft 2 kts 154°
2026-05-04 13:09 11.92679 121.96313 30 ft 2 kts 200°
2026-05-04 13:09 11.92691 121.96322 30 ft 1 kts 236°
2026-05-04 13:09 11.92693 121.96326 30 ft 0 kts 245°
2026-05-04 13:10 11.92681 121.96304 30 ft 3 kts 243°
2026-05-04 13:10 11.92679 121.96298 30 ft 0 kts 243°
2026-05-04 13:12 11.92676 121.96294 30 ft 1 kts 243°
2026-05-04 13:13 11.92669 121.96279 30 ft 3 kts 243°
2026-05-04 13:13 11.92657 121.96255 30 ft 4 kts 243°
2026-05-04 13:13 11.92643 121.96220 30 ft 5 kts 265°
2026-05-04 13:13 11.92664 121.96183 30 ft 7 kts 323°
2026-05-04 13:14 11.92713 121.96158 30 ft 8 kts 334°
2026-05-04 13:14 11.92770 121.96129 30 ft 9 kts 333°
2026-05-04 13:14 11.92795 121.96072 30 ft 10 kts 250°
2026-05-04 13:14 11.92759 121.96000 30 ft 11 kts 243°
2026-05-04 13:15 11.92719 121.95921 30 ft 12 kts 243°
2026-05-04 13:15 11.92677 121.95837 30 ft 13 kts 243°
2026-05-04 13:15 11.92630 121.95746 30 ft 14 kts 242°
2026-05-04 13:15 11.92584 121.95651 30 ft 15 kts 243°
2026-05-04 13:16 11.92534 121.95552 30 ft 15 kts 242°
2026-05-04 13:16 11.92482 121.95449 30 ft 16 kts 243°
2026-05-04 13:16 11.92429 121.95344 30 ft 16 kts 243°
2026-05-04 13:16 11.92375 121.95235 30 ft 17 kts 243°
2026-05-04 13:17 11.92319 121.95126 30 ft 17 kts 243°
2026-05-04 13:17 11.92277 121.95033 30 ft 10 kts 260°
2026-05-04 13:17 11.92245 121.95001 30 ft 8 kts 127°
2026-05-04 13:17 11.92279 121.95053 30 ft 10 kts 48°
2026-05-04 13:18 11.92323 121.95136 30 ft 28 kts 63°
2026-05-04 13:18 11.92556 121.95599 30 ft 114 kts 60°
2026-05-04 13:18 11.92998 121.96498 259 ft 158 kts 64°
2026-05-04 13:18 11.93481 121.97457 1126 ft 151 kts 63°
2026-05-04 13:19 11.93957 121.98392 1681 ft 153 kts 63°
2026-05-04 13:19 11.94473 121.99417 1991 ft 173 kts 63°
2026-05-04 13:19 11.95048 122.00567 2395 ft 190 kts 63°
2026-05-04 13:19 11.95681 122.01824 2751 ft 211 kts 60°
2026-05-04 13:20 11.96668 122.03002 3311 ft 225 kts 38°
2026-05-04 13:20 11.98038 122.03822 3887 ft 239 kts 29°
2026-05-04 13:20 11.99599 122.04607 4382 ft 256 kts 28°
2026-05-04 13:20 12.01238 122.05419 5081 ft 264 kts 28°
2026-05-04 13:21 12.02875 122.06235 5861 ft 267 kts 28°
2026-05-04 13:21 12.04558 122.07080 6628 ft 270 kts 28°
2026-05-04 13:21 12.06240 122.07928 7367 ft 274 kts 28°
2026-05-04 13:21 12.07969 122.08804 8096 ft 278 kts 27°
2026-05-04 13:22 12.09699 122.09681 8788 ft 282 kts 27°
2026-05-04 13:22 12.11462 122.10573 9492 ft 285 kts 27°
2026-05-04 13:22 12.13246 122.11473 10177 ft 287 kts 27°
2026-05-04 13:22 12.15072 122.12395 10618 ft 300 kts 27°
2026-05-04 13:23 12.16992 122.13367 11034 ft 311 kts 28°
2026-05-04 13:23 12.18950 122.14357 11653 ft 314 kts 28°
2026-05-04 13:23 12.20900 122.15345 12257 ft 317 kts 28°
2026-05-04 13:23 12.22888 122.16354 12811 ft 321 kts 28°
2026-05-04 13:24 12.24904 122.17377 13357 ft 324 kts 28°
2026-05-04 13:24 12.26942 122.18412 13903 ft 327 kts 28°
2026-05-04 13:24 12.28996 122.19455 14439 ft 330 kts 28°
2026-05-04 13:25 12.33125 122.21549 15490 ft 334 kts 28°
2026-05-04 13:25 12.35326 122.22401 15947 ft 342 kts 12°
2026-05-04 13:25 12.37713 122.22366 16425 ft 350 kts 349°
2026-05-04 13:25 12.39973 122.21398 16922 ft 356 kts 329°
2026-05-04 13:26 12.42018 122.19978 17432 ft 357 kts 327°
2026-05-04 13:26 12.44063 122.18526 17894 ft 360 kts 327°
2026-05-04 13:26 12.46131 122.17063 18338 ft 362 kts 327°
2026-05-04 13:26 12.48229 122.15590 18802 ft 364 kts 327°
2026-05-04 13:27 12.50336 122.14117 19245 ft 366 kts 327°
2026-05-04 13:27 12.52435 122.12651 19660 ft 369 kts 327°
2026-05-04 13:27 12.54573 122.11163 20079 ft 371 kts 327°
2026-05-04 13:27 12.56706 122.09677 20496 ft 373 kts 327°
2026-05-04 13:28 12.58847 122.08189 20900 ft 375 kts 327°
2026-05-04 13:28 12.61033 122.06669 21309 ft 378 kts 327°
2026-05-04 13:28 12.63207 122.05157 21700 ft 380 kts 327°
2026-05-04 13:28 12.65418 122.03619 21913 ft 381 kts 327°
2026-05-04 13:29 12.67606 122.02096 21920 ft 380 kts 327°
2026-05-04 13:29 12.69793 122.00573 21922 ft 380 kts 327°
2026-05-04 13:29 12.71986 121.99047 21925 ft 380 kts 327°
2026-05-04 13:29 12.74173 121.97525 21929 ft 380 kts 327°
2026-05-04 13:30 12.76373 121.95992 21932 ft 380 kts 327°
2026-05-04 13:30 12.78555 121.94473 21931 ft 380 kts 327°
2026-05-04 13:30 12.80746 121.92946 21931 ft 380 kts 327°
2026-05-04 13:30 12.82935 121.91421 21931 ft 380 kts 327°
2026-05-04 13:31 12.85117 121.89900 21933 ft 380 kts 327°
2026-05-04 13:31 12.87310 121.88372 21934 ft 380 kts 327°
2026-05-04 13:31 12.89500 121.86844 21933 ft 380 kts 327°
2026-05-04 13:31 12.91704 121.85307 21932 ft 379 kts 327°
2026-05-04 13:32 12.93885 121.83785 21934 ft 379 kts 327°
2026-05-04 13:32 12.96067 121.82263 21936 ft 379 kts 327°
2026-05-04 13:32 12.98249 121.80741 21937 ft 379 kts 327°
2026-05-04 13:32 13.00454 121.79201 21939 ft 380 kts 327°
2026-05-04 13:33 13.02634 121.77679 21940 ft 380 kts 327°
2026-05-04 13:33 13.04817 121.76154 21944 ft 380 kts 327°
2026-05-04 13:33 13.07004 121.74627 21942 ft 380 kts 327°
2026-05-04 13:33 13.09209 121.73086 21941 ft 380 kts 327°
2026-05-04 13:34 13.11396 121.71558 21940 ft 380 kts 327°
2026-05-04 13:34 13.13550 121.70053 21940 ft 379 kts 327°
2026-05-04 13:34 13.15551 121.68655 21944 ft 380 kts 327°
2026-05-04 13:34 13.17782 121.67095 21944 ft 379 kts 327°
2026-05-04 13:35 13.19969 121.65566 21943 ft 379 kts 327°
2026-05-04 13:35 13.24300 121.62534 21942 ft 380 kts 327°
2026-05-04 13:35 13.26463 121.61018 21943 ft 380 kts 327°
2026-05-04 13:36 13.28650 121.59487 21945 ft 380 kts 327°
2026-05-04 13:36 13.30858 121.57941 21946 ft 380 kts 327°
2026-05-04 13:36 13.33056 121.56403 21944 ft 380 kts 327°
2026-05-04 13:36 13.35229 121.54879 21940 ft 380 kts 327°
2026-05-04 13:37 13.37433 121.53334 21724 ft 380 kts 327°
2026-05-04 13:37 13.39590 121.51822 21494 ft 378 kts 327°
2026-05-04 13:37 13.41776 121.50290 21245 ft 376 kts 327°
2026-05-04 13:37 13.43927 121.48779 21019 ft 375 kts 327°
2026-05-04 13:38 13.46101 121.47254 20752 ft 374 kts 327°
2026-05-04 13:38 13.48249 121.45746 20398 ft 372 kts 327°
2026-05-04 13:38 13.50381 121.44247 20006 ft 370 kts 327°
2026-05-04 13:38 13.52499 121.42759 19601 ft 368 kts 327°
2026-05-04 13:39 13.54602 121.41282 19249 ft 363 kts 327°
2026-05-04 13:39 13.56673 121.39833 18994 ft 355 kts 329°
2026-05-04 13:39 13.58855 121.38698 18760 ft 346 kts 340°
2026-05-04 13:39 13.61112 121.37844 18524 ft 344 kts 342°
2026-05-04 13:40 13.63347 121.37037 18293 ft 342 kts 342°
2026-05-04 13:40 13.65597 121.36203 18063 ft 341 kts 342°
2026-05-04 13:40 13.67833 121.35352 17831 ft 340 kts 341°
2026-05-04 13:40 13.69974 121.34521 17611 ft 338 kts 341°
2026-05-04 13:41 13.72192 121.33649 17380 ft 337 kts 341°
2026-05-04 13:41 13.74379 121.32784 17155 ft 336 kts 341°
2026-05-04 13:41 13.76569 121.31914 16921 ft 335 kts 341°
2026-05-04 13:42 13.80896 121.30189 16461 ft 332 kts 341°
2026-05-04 13:42 13.83065 121.29324 16233 ft 330 kts 341°
2026-05-04 13:42 13.85212 121.28465 16030 ft 329 kts 341°
2026-05-04 13:42 13.87360 121.27607 15996 ft 328 kts 341°
2026-05-04 13:43 13.89470 121.26764 15976 ft 326 kts 341°
2026-05-04 13:43 13.91586 121.25916 15698 ft 323 kts 341°
2026-05-04 13:43 13.93689 121.25076 15282 ft 323 kts 341°
2026-05-04 13:43 13.95795 121.24234 14903 ft 322 kts 341°
2026-05-04 13:44 13.97885 121.23398 14545 ft 320 kts 341°
2026-05-04 13:44 13.99963 121.22566 14180 ft 318 kts 341°
2026-05-04 13:44 14.02012 121.21748 13819 ft 316 kts 341°
2026-05-04 13:44 14.04067 121.20923 13459 ft 314 kts 341°
2026-05-04 13:45 14.06094 121.20111 13108 ft 312 kts 341°
2026-05-04 13:45 14.08126 121.19296 12753 ft 309 kts 341°
2026-05-04 13:45 14.10131 121.18493 12392 ft 307 kts 341°
2026-05-04 13:45 14.12136 121.17687 12030 ft 305 kts 341°
2026-05-04 13:46 14.14060 121.16917 11683 ft 303 kts 341°
2026-05-04 13:46 14.15922 121.16170 11335 ft 301 kts 341°
2026-05-04 13:46 14.17869 121.15389 11058 ft 297 kts 341°
2026-05-04 13:46 14.19811 121.14610 11032 ft 298 kts 342°
2026-05-04 13:47 14.21740 121.13835 11027 ft 299 kts 342°
2026-05-04 13:47 14.23684 121.13055 11008 ft 298 kts 342°
2026-05-04 13:47 14.25629 121.12274 11011 ft 298 kts 341°
2026-05-04 13:47 14.27566 121.11494 10831 ft 294 kts 342°
2026-05-04 13:48 14.29470 121.10729 10423 ft 294 kts 342°
2026-05-04 13:48 14.31389 121.09957 10040 ft 293 kts 342°
2026-05-04 13:48 14.33289 121.09193 9685 ft 290 kts 342°
2026-05-04 13:48 14.35126 121.08396 9318 ft 290 kts 334°
2026-05-04 13:49 14.36637 121.06992 9024 ft 296 kts 306°
2026-05-04 13:49 14.37394 121.04988 9007 ft 304 kts 279°
2026-05-04 13:49 14.37257 121.02814 9002 ft 310 kts 254°
2026-05-04 13:49 14.36353 121.00806 9002 ft 311 kts 240°
2026-05-04 13:50 14.35215 120.98884 9019 ft 311 kts 238°
2026-05-04 13:50 14.34047 120.96996 9052 ft 311 kts 237°
2026-05-04 13:50 14.32872 120.95110 9038 ft 312 kts 237°
2026-05-04 13:50 14.31712 120.93246 9019 ft 311 kts 237°
2026-05-04 13:51 14.30546 120.91363 9023 ft 311 kts 237°
2026-05-04 13:51 14.29377 120.89472 8931 ft 307 kts 237°
2026-05-04 13:51 14.28228 120.87620 8548 ft 307 kts 237°
2026-05-04 13:51 14.27084 120.85786 8197 ft 305 kts 237°
2026-05-04 13:52 14.24861 120.82236 7698 ft 281 kts 237°
2026-05-04 13:52 14.23818 120.80568 7259 ft 274 kts 237°
2026-05-04 13:52 14.22789 120.78921 6735 ft 271 kts 237°
2026-05-04 13:53 14.21786 120.77316 6247 ft 266 kts 237°
2026-05-04 13:53 14.20789 120.75723 6018 ft 265 kts 237°
2026-05-04 13:53 14.19778 120.74108 6006 ft 266 kts 237°
2026-05-04 13:54 14.17841 120.71011 5988 ft 249 kts 237°
2026-05-04 13:54 14.16901 120.69504 5997 ft 249 kts 237°
2026-05-04 13:54 14.15033 120.66507 5824 ft 244 kts 237°
2026-05-04 13:55 14.14119 120.65040 5491 ft 246 kts 237°
2026-05-04 13:55 14.12284 120.62060 5009 ft 242 kts 237°
2026-05-04 13:55 14.11391 120.60601 5000 ft 243 kts 237°
2026-05-04 13:56 14.10491 120.59125 4991 ft 243 kts 237°
2026-05-04 13:56 14.09590 120.57640 4993 ft 244 kts 237°
2026-05-04 13:56 14.07976 120.54587 4967 ft 244 kts 263°
2026-05-04 13:57 14.08220 120.52891 4974 ft 240 kts 303°
2026-05-04 13:57 14.09407 120.51757 4985 ft 231 kts 341°
2026-05-04 13:58 14.13596 120.52922 5006 ft 217 kts 43°
2026-05-04 13:58 14.15918 120.54957 4988 ft 218 kts 41°
2026-05-04 13:58 14.17081 120.55944 4980 ft 218 kts 41°
2026-05-04 13:59 14.18272 120.56946 4977 ft 219 kts 41°
2026-05-04 13:59 14.19459 120.57938 4976 ft 219 kts 40°
2026-05-04 13:59 14.21822 120.59901 4988 ft 218 kts 40°
2026-05-04 14:00 14.23015 120.60892 4992 ft 219 kts 40°
2026-05-04 14:00 14.25393 120.62865 4990 ft 218 kts 40°
2026-05-04 14:00 14.26577 120.63847 4989 ft 218 kts 40°
2026-05-04 14:01 14.27772 120.64838 4988 ft 218 kts 40°
2026-05-04 14:01 14.28954 120.65819 4990 ft 218 kts 40°
2026-05-04 14:01 14.31292 120.67833 4993 ft 218 kts 43°
2026-05-04 14:02 14.32334 120.68963 4990 ft 218 kts 53°
2026-05-04 14:02 14.33207 120.70246 4838 ft 218 kts 58°
2026-05-04 14:02 14.33995 120.71574 4595 ft 217 kts 60°
2026-05-04 14:02 14.34757 120.72913 4329 ft 216 kts 60°
2026-05-04 14:03 14.35497 120.74236 4060 ft 214 kts 61°
2026-05-04 14:03 14.36239 120.75572 3786 ft 212 kts 61°
2026-05-04 14:03 14.36966 120.76884 3520 ft 211 kts 61°
2026-05-04 14:03 14.37694 120.78200 3251 ft 209 kts 62°
2026-05-04 14:04 14.39101 120.80744 2989 ft 194 kts 62°
2026-05-04 14:04 14.39766 120.81947 2992 ft 193 kts 62°
2026-05-04 14:04 14.40433 120.83154 3014 ft 194 kts 62°
2026-05-04 14:05 14.41772 120.85573 3026 ft 194 kts 62°
2026-05-04 14:05 14.42444 120.86785 2838 ft 194 kts 61°
2026-05-04 14:05 14.43118 120.88000 2579 ft 193 kts 61°
2026-05-04 14:06 14.43727 120.89098 2355 ft 192 kts 61°
2026-05-04 14:06 14.44388 120.90291 2196 ft 182 kts 61°
2026-05-04 14:06 14.45015 120.91420 1929 ft 178 kts 61°
2026-05-04 14:06 14.45621 120.92512 1692 ft 166 kts 61°
2026-05-04 14:07 14.46171 120.93503 1468 ft 151 kts 61°
2026-05-04 14:07 14.47092 120.95163 1100 ft 137 kts 61°
2026-05-04 14:07 14.47568 120.96021 943 ft 136 kts 62°
2026-05-04 14:08 14.48036 120.96860 787 ft 136 kts 62°
2026-05-04 14:08 14.48511 120.97713 597 ft 135 kts 62°
2026-05-04 14:08 14.48980 120.98553 436 ft 135 kts 62°
2026-05-04 14:08 14.49440 120.99400 281 ft 135 kts 62°
2026-05-04 14:09 14.50350 121.01031 82 ft 106 kts 62°
2026-05-04 14:09 14.50631 121.01537 82 ft 48 kts 61°
2026-05-04 14:10 14.50842 121.01778 82 ft 12 kts 35°
2026-05-04 14:10 14.50893 121.01784 82 ft 8 kts 327°
2026-05-04 14:10 14.50898 121.01730 82 ft 3 kts 242°
2026-05-04 14:10 14.50889 121.01713 82 ft 3 kts 242°
2026-05-04 14:11 14.50885 121.01679 82 ft 6 kts 291°
2026-05-04 14:11 14.50960 121.01598 82 ft 9 kts 315°
2026-05-04 14:11 14.51009 121.01548 82 ft 10 kts 315°
2026-05-04 14:12 14.51064 121.01490 82 ft 11 kts 314°
2026-05-04 14:12 14.51075 121.01434 82 ft 8 kts 221°
2026-05-04 14:12 14.51050 121.01403 82 ft 0 kts 231°